TimeCDT,TemperatureF,Dew PointF,Humidity,Sea Level PressureIn,VisibilityMPH,Wind Direction,Wind SpeedMPH,Gust SpeedMPH,PrecipitationIn,Events,Conditions,WindDirDegrees,DateUTC
12:15 AM,61.3,58.5,90,30.06,10.0,ESE,3.5,-,N/A,,Clear,120,2013-10-16 05:15:00
12:35 AM,61.2,58.5,91,30.06,10.0,SE,3.5,-,N/A,,Clear,140,2013-10-16 05:35:00
12:55 AM,61.2,58.5,91,30.05,10.0,ESE,3.5,-,N/A,,Clear,120,2013-10-16 05:55:00
1:15 AM,61.5,58.6,90,30.05,10.0,SE,3.5,-,N/A,,Clear,140,2013-10-16 06:15:00
1:35 AM,61.7,58.6,90,30.05,10.0,SSE,4.6,-,N/A,,Clear,160,2013-10-16 06:35:00
1:55 AM,61.7,58.6,90,30.03,10.0,SSE,5.8,-,N/A,,Clear,150,2013-10-16 06:55:00
2:15 AM,61.5,58.8,91,30.03,10.0,Calm,Calm,-,N/A,,Clear,0,2013-10-16 07:15:00
2:35 AM,61.3,59.0,92,30.02,10.0,Calm,Calm,-,N/A,,Clear,0,2013-10-16 07:35:00
2:55 AM,61.7,59.0,91,30.02,10.0,SSE,3.5,-,N/A,,Scattered Clouds,150,2013-10-16 07:55:00
3:15 AM,61.7,59.0,91,30.02,10.0,Calm,Calm,-,N/A,,Mostly Cloudy,0,2013-10-16 08:15:00
3:35 AM,61.3,59.0,92,30.01,10.0,SSE,3.5,-,N/A,,Mostly Cloudy,150,2013-10-16 08:35:00
3:55 AM,61.7,59.0,91,30.02,10.0,South,3.5,-,N/A,,Mostly Cloudy,170,2013-10-16 08:55:00
4:15 AM,61.7,59.0,91,30.02,10.0,SSE,3.5,-,N/A,,Mostly Cloudy,150,2013-10-16 09:15:00
4:35 AM,61.7,59.0,91,30.03,10.0,Calm,Calm,-,N/A,,Mostly Cloudy,0,2013-10-16 09:35:00
4:55 AM,61.7,59.0,91,30.02,10.0,SSE,3.5,-,N/A,,Mostly Cloudy,150,2013-10-16 09:55:00
5:15 AM,61.3,59.0,92,30.03,10.0,SSE,3.5,-,N/A,,Scattered Clouds,150,2013-10-16 10:15:00
5:35 AM,61.3,59.0,92,30.03,10.0,SE,4.6,-,N/A,,Clear,140,2013-10-16 10:35:00
5:55 AM,61.2,58.8,92,30.04,10.0,Calm,Calm,-,N/A,,Clear,0,2013-10-16 10:55:00
6:15 AM,61.2,58.6,91,30.04,10.0,SSE,4.6,-,N/A,,Scattered Clouds,150,2013-10-16 11:15:00
6:35 AM,61.3,58.6,91,30.04,10.0,SSE,5.8,-,N/A,,Scattered Clouds,150,2013-10-16 11:35:00
6:55 AM,61.3,58.8,91,30.05,10.0,SSE,4.6,-,N/A,,Scattered Clouds,160,2013-10-16 11:55:00
7:15 AM,61.2,59.0,93,30.06,10.0,SSE,3.5,-,N/A,,Mostly Cloudy,150,2013-10-16 12:15:00
7:35 AM,61.2,59.0,93,30.06,10.0,Calm,Calm,-,N/A,,Overcast,0,2013-10-16 12:35:00
7:55 AM,61.3,59.0,92,30.06,10.0,SE,3.5,-,N/A,,Mostly Cloudy,130,2013-10-16 12:55:00
8:15 AM,61.7,59.0,91,30.07,10.0,Calm,Calm,-,N/A,,Scattered Clouds,0,2013-10-16 13:15:00
8:35 AM,61.7,59.0,91,30.07,10.0,SSE,3.5,-,N/A,,Mostly Cloudy,150,2013-10-16 13:35:00
8:55 AM,61.9,59.0,90,30.07,10.0,SSE,3.5,-,N/A,,Scattered Clouds,160,2013-10-16 13:55:00
9:15 AM,62.2,59.2,90,30.08,10.0,SSE,3.5,-,N/A,,Mostly Cloudy,160,2013-10-16 14:15:00
9:35 AM,62.4,59.2,89,30.08,10.0,SSE,4.6,-,N/A,,Overcast,160,2013-10-16 14:35:00
9:55 AM,62.6,59.2,89,30.07,10.0,SSE,4.6,-,N/A,,Overcast,160,2013-10-16 14:55:00
10:15 AM,62.8,59.2,88,30.06,10.0,SSE,5.8,-,N/A,,Mostly Cloudy,160,2013-10-16 15:15:00
10:35 AM,63.1,59.4,87,30.06,10.0,South,5.8,-,N/A,,Scattered Clouds,170,2013-10-16 15:35:00
10:55 AM,63.5,59.5,87,30.06,10.0,SSE,5.8,-,N/A,,Scattered Clouds,150,2013-10-16 15:55:00
11:15 AM,64.4,59.9,85,30.05,10.0,SSE,5.8,-,N/A,Rain,Light Rain,160,2013-10-16 16:15:00
11:35 AM,64.9,60.1,84,30.05,10.0,SSE,8.1,-,N/A,,Mostly Cloudy,160,2013-10-16 16:35:00
11:55 AM,66.0,60.3,82,30.05,10.0,South,9.2,-,N/A,,Mostly Cloudy,170,2013-10-16 16:55:00
12:15 PM,66.9,60.4,80,30.04,10.0,South,8.1,-,N/A,,Overcast,180,2013-10-16 17:15:00
12:35 PM,68.2,60.8,77,30.03,10.0,South,10.4,-,N/A,,Overcast,170,2013-10-16 17:35:00
12:55 PM,69.4,61.5,76,30.02,10.0,SSE,9.2,-,N/A,,Overcast,160,2013-10-16 17:55:00
1:15 PM,69.1,61.7,77,30.01,10.0,South,8.1,-,N/A,,Overcast,180,2013-10-16 18:15:00
1:35 PM,68.9,61.9,78,30.01,10.0,SSW,8.1,-,N/A,,Overcast,200,2013-10-16 18:35:00
1:55 PM,68.2,62.6,82,30.00,4.0,South,6.9,-,N/A,Rain,Heavy Rain,190,2013-10-16 18:55:00
2:15 PM,66.4,64.2,93,29.99,3.0,South,5.8,-,N/A,,Drizzle,170,2013-10-16 19:15:00
2:35 PM,66.2,64.6,94,29.99,3.0,South,5.8,-,0.01,,Drizzle,180,2013-10-16 19:35:00
2:55 PM,66.2,64.9,96,29.99,2.0,South,5.8,-,0.02,,Heavy Drizzle,180,2013-10-16 19:55:00
3:15 PM,66.0,65.1,97,29.99,2.0,South,5.8,-,0.03,Rain,Rain,180,2013-10-16 20:15:00
3:35 PM,65.8,65.1,98,29.98,2.5,South,6.9,-,0.07,Rain,Rain,190,2013-10-16 20:35:00
3:55 PM,65.8,65.1,98,29.98,2.5,South,8.1,-,0.09,Rain,Light Rain,180,2013-10-16 20:55:00
4:15 PM,65.8,65.1,98,29.98,3.0,South,5.8,-,0.01,Rain,Rain,180,2013-10-16 21:15:00
4:35 PM,66.0,65.1,97,29.97,3.0,South,5.8,-,0.04,Rain,Heavy Rain,170,2013-10-16 21:35:00
4:55 PM,65.8,65.1,98,29.97,3.0,South,5.8,-,0.06,Rain,Rain,180,2013-10-16 21:55:00
5:15 PM,65.8,65.3,98,29.97,3.0,South,8.1,-,0.02,Rain,Rain,170,2013-10-16 22:15:00
5:35 PM,65.8,65.3,98,29.96,4.0,South,6.9,-,0.03,Rain,Light Rain,180,2013-10-16 22:35:00
5:55 PM,66.0,65.1,97,29.97,5.0,South,5.8,-,0.03,,Drizzle,170,2013-10-16 22:55:00
6:15 PM,66.0,65.1,97,29.97,5.0,South,3.5,-,0.01,,Heavy Drizzle,170,2013-10-16 23:15:00
6:35 PM,65.8,65.3,98,29.98,3.0,SSE,5.8,-,0.02,,Heavy Drizzle,160,2013-10-16 23:35:00
6:55 PM,65.7,65.3,99,29.98,3.0,South,6.9,-,0.05,Rain,Rain,180,2013-10-16 23:55:00
7:15 PM,66.0,65.3,98,29.98,5.0,SSW,5.8,-,N/A,Rain,Rain,200,2013-10-17 00:15:00
7:35 PM,66.0,65.3,98,29.98,4.0,SSW,4.6,-,0.01,,Drizzle,200,2013-10-17 00:35:00
7:55 PM,65.8,65.3,98,29.98,4.0,SSW,4.6,-,0.01,,Drizzle,200,2013-10-17 00:55:00
8:15 PM,66.0,65.3,98,29.98,4.0,SSW,4.6,-,0.01,Rain,Light Rain,200,2013-10-17 01:15:00
8:35 PM,66.0,65.5,98,29.99,4.0,SSW,6.9,-,0.02,,Heavy Drizzle,200,2013-10-17 01:35:00
8:55 PM,66.0,65.5,98,29.99,2.5,Calm,Calm,-,0.05,Rain,Rain,0,2013-10-17 01:55:00
9:15 PM,65.8,65.5,99,29.99,3.0,SSW,4.6,-,0.02,Rain,Heavy Rain,210,2013-10-17 02:15:00
9:35 PM,66.0,65.7,99,29.99,3.0,SW,3.5,-,0.06,Rain,Rain,220,2013-10-17 02:35:00
9:55 PM,66.2,65.7,98,29.99,2.5,Calm,Calm,-,0.12,Rain,Heavy Rain,0,2013-10-17 02:55:00
10:15 PM,66.2,65.7,98,29.99,4.0,SSW,3.5,-,0.03,Rain,Rain,210,2013-10-17 03:15:00
10:35 PM,66.2,65.7,98,29.99,5.0,SSW,5.8,-,0.05,Rain,Rain,210,2013-10-17 03:35:00
10:55 PM,66.2,65.7,98,29.99,7.0,SSW,4.6,-,0.05,,Drizzle,210,2013-10-17 03:55:00
11:15 PM,66.2,65.7,98,29.98,5.0,SSW,5.8,-,0.02,Rain,Rain,200,2013-10-17 04:15:00
11:35 PM,66.2,65.7,98,29.97,7.0,SSW,5.8,-,0.02,,Light Drizzle,210,2013-10-17 04:35:00
11:55 PM,66.2,65.7,98,29.97,10.0,SW,4.6,-,0.02,,Overcast,220,2013-10-17 04:55:00